Location: Newark
(54.3386°S, 169.8415°W)
Time: 22:05:05
(UTC+00:00)

SR - All Passes

Search period start: 15 October 2019 00:00
Search period end: 25 October 2019 00:00
Orbit: 575 x 881 km, 66.7° (Epoch: 15 October)

Date Brightness Start Highest point End Pass type
(mag) Time Alt. Az. Time Alt. Az. Time Alt. Az.
15 Oct - 00:06:50 10° NW 00:11:49 62° SW 00:16:26 10° SE daylight
15 Oct - 01:50:52 10° WSW 01:54:41 23° SSW 01:58:18 10° SSE daylight
15 Oct - 03:35:08 10° SW 03:38:15 18° S 03:41:14 10° SE daylight
15 Oct - 05:17:38 10° SSW 05:21:37 30° SSE 05:25:27 10° E daylight
15 Oct - 06:59:39 10° SW 07:04:00 67° NW 07:08:13 10° NNE visible
15 Oct - 08:43:58 10° W 08:45:07 11° WNW 08:46:17 10° WNW visible
15 Oct - 21:37:21 10° NNE 21:40:38 17° ENE 21:43:47 10° ESE daylight
15 Oct - 23:17:02 10° NW 23:22:07 83° NE 23:26:48 10° SE daylight
16 Oct - 01:00:21 10° W 01:04:38 29° SSW 01:08:40 10° SSE daylight
16 Oct - 02:44:53 10° SW 02:48:02 17° S 02:51:03 10° SE daylight
16 Oct - 04:27:58 10° SSW 04:31:35 23° SSE 04:35:04 10° ESE daylight
16 Oct - 06:09:57 10° SW 06:14:22 71° SE 06:18:37 10° NE daylight
16 Oct - 07:52:41 10° WSW 07:55:56 21° WNW 07:59:07 10° NNW visible
16 Oct - 22:27:39 10° NNW 22:32:32 49° ENE 22:37:05 10° SE daylight
17 Oct - 00:10:01 10° WNW 00:14:42 41° SW 00:19:04 10° SE daylight
17 Oct - 01:54:26 10° WSW 01:57:50 19° SSW 02:01:06 10° SSE daylight
17 Oct - 03:38:11 10° SSW 03:41:27 19° SSE 03:44:36 10° ESE daylight
17 Oct - 05:20:20 10° SW 05:24:35 43° SE 05:28:40 10° ENE daylight
17 Oct - 07:02:33 10° SW 07:06:35 38° WNW 07:10:31 10° N visible
17 Oct - 21:38:46 10° N 21:43:05 28° ENE 21:47:08 10° ESE daylight
17 Oct - 23:19:55 10° NW 23:24:53 64° SW 23:29:29 10° SE daylight
18 Oct - 01:03:53 10° WSW 01:07:43 23° SSW 01:11:21 10° SSE daylight
18 Oct - 02:48:11 10° SW 02:51:16 17° S 02:54:14 10° SE daylight
18 Oct - 04:30:44 10° SSW 04:34:39 29° SSE 04:38:26 10° E daylight
18 Oct - 06:12:43 10° SW 06:17:04 70° NW 06:21:18 10° NNE daylight
18 Oct - 07:56:43 10° W 07:58:14 12° WNW 07:59:44 10° NW visible
18 Oct - 20:50:40 10° NNE 20:53:45 16° ENE 20:56:44 10° ESE daylight
18 Oct - 22:30:09 10° NW 22:35:12 79° NE 22:39:51 10° SE daylight
19 Oct - 00:13:23 10° W 00:17:41 30° SSW 00:21:42 10° SSE daylight
19 Oct - 01:57:56 10° SW 02:01:03 17° S 02:04:03 10° SE daylight
19 Oct - 03:41:03 10° SSW 03:44:37 22° SSE 03:48:03 10° ESE daylight
19 Oct - 05:23:02 10° SW 05:27:25 67° SE 05:31:40 10° NE daylight
19 Oct - 07:05:42 10° WSW 07:09:02 22° WNW 07:12:18 10° NNW visible
19 Oct - 21:40:48 10° NNW 21:45:38 46° ENE 21:50:06 10° SE daylight
19 Oct - 23:23:03 10° WNW 23:27:45 43° SW 23:32:07 10° SE daylight
20 Oct - 01:07:28 10° WSW 01:10:52 19° SSW 01:14:07 10° SSE daylight
20 Oct - 02:51:15 10° SSW 02:54:28 19° SSE 02:57:35 10° ESE daylight
20 Oct - 04:33:25 10° SW 04:37:37 41° SE 04:41:41 10° ENE daylight
20 Oct - 06:15:36 10° SW 06:19:39 40° WNW 06:23:38 10° N daylight
20 Oct - 20:51:59 10° N 20:56:11 27° ENE 21:00:08 10° ESE daylight
20 Oct - 22:33:00 10° NW 22:37:57 67° SW 22:42:32 10° SE daylight
21 Oct - 00:16:54 10° WSW 00:20:44 23° SSW 00:24:23 10° SSE daylight
21 Oct - 02:01:15 10° SW 02:04:17 17° S 02:07:13 10° SE daylight
21 Oct - 03:43:48 10° SSW 03:47:41 28° SSE 03:51:26 10° E daylight
21 Oct - 05:25:47 10° SW 05:30:08 74° NW 05:34:23 10° NNE daylight
21 Oct - 07:09:33 10° W 07:11:21 12° WNW 07:13:07 10° NW visible
21 Oct - 20:03:59 10° NE 20:06:52 15° ENE 20:09:38 10° ESE daylight
21 Oct - 21:43:16 10° NNW 21:48:16 76° NE 21:52:54 10° SE daylight
21 Oct - 23:26:25 10° W 23:30:43 31° SSW 23:34:45 10° SSE daylight
22 Oct - 01:10:58 10° SW 01:14:04 17° S 01:17:03 10° SE daylight
22 Oct - 02:54:08 10° SSW 02:57:38 22° SSE 03:01:01 10° ESE daylight
22 Oct - 04:36:07 10° SW 04:40:28 64° SE 04:44:43 10° NE daylight
22 Oct - 06:18:42 10° WSW 06:22:07 23° WNW 06:25:29 10° NNW daylight
22 Oct - 20:53:58 10° NNW 20:58:43 44° ENE 21:03:07 10° SE daylight
22 Oct - 22:36:07 10° WNW 22:40:48 44° SW 22:45:11 10° SE daylight
23 Oct - 00:20:29 10° WSW 00:23:53 19° SSW 00:27:09 10° SSE daylight
23 Oct - 02:04:19 10° SSW 02:07:30 18° SSE 02:10:33 10° ESE daylight
23 Oct - 03:46:30 10° SW 03:50:40 40° SE 03:54:42 10° ENE daylight
23 Oct - 05:28:38 10° SW 05:32:44 42° WNW 05:36:45 10° NNE daylight
23 Oct - 20:05:12 10° N 20:09:17 26° ENE 20:13:07 10° ESE daylight
23 Oct - 21:46:05 10° NW 21:51:01 70° SW 21:55:35 10° SE daylight
23 Oct - 23:29:56 10° WSW 23:33:46 24° SSW 23:37:26 10° SSE daylight
24 Oct - 01:14:18 10° SW 01:17:18 17° S 01:20:12 10° SE daylight
24 Oct - 02:56:53 10° SSW 03:00:43 28° SSE 03:04:25 10° E daylight
24 Oct - 04:38:51 10° SW 04:43:12 78° NW 04:47:27 10° NE daylight
24 Oct - 06:22:26 10° W 06:24:27 13° WNW 06:26:28 10° NW daylight
24 Oct - 19:17:20 10° NE 19:19:59 14° ENE 19:22:32 10° ESE daylight
24 Oct - 20:56:23 10° NNW 21:01:21 72° NE 21:05:57 10° SE daylight
24 Oct - 22:39:27 10° W 22:43:45 31° SSW 22:47:49 10° SSE daylight
